DW2806 Weather Reports


Display with metric or nautical units.
time (UTC)temp
F
wind
direction
speed
MPH
gust
MPH
rain 1hr
in
rain 24hr
in
rain mn
in
humidity
%
barometer
mb
20260510144542 63 242 0.0 2.0 0.00 0.00 0.00 81 1025.7
20260510143018 61 198 0.0 1.0 0.00 0.00 0.00 84 1025.7
20260510141517 61 127 0.0 0.0 0.00 0.00 0.00 84 1025.7
20260510140012 60 127 0.0 1.0 0.00 0.00 0.00 87 1025.7
20260510134509 59 172 0.0 0.0 0.00 0.00 0.00 92 1025.7
20260510133005 57 163 0.0 1.0 0.00 0.00 0.00 91 1025.7
20260510131506 56 139 0.0 1.0 0.00 0.00 0.00 94 1025.7
20260510130059 55 179 0.0 0.0 0.00 0.00 0.00 94 1025.7
20260510124600 55 179 0.0 6.0 0.00 0.00 0.00 95 1025.7
20260510123057 54 296 0.0 0.0 0.00 0.00 0.00 95 1025.7
20260510121557 54 297 0.0 1.0 0.00 0.00 0.00 95 1025.7
20260510120050 53 298 0.0 0.0 0.00 0.08 0.00 95 1025.7
20260510114551 53 297 0.0 0.0 0.00 0.08 0.00 95 1025.7
20260510113047 53 297 0.0 1.0 0.00 0.08 0.00 95 1025.7
20260510111547 52 298 0.0 0.0 0.00 0.08 0.00 95 1025.7
20260510110040 51 298 0.0 0.0 0.00 0.14 0.00 95 1025.7
20260510104553 50 298 0.0 0.0 0.00 0.14 0.00 95 1025.7
20260510103042 50 298 0.0 0.0 0.00 0.14 0.00 95 1025.7
20260510101546 49 298 0.0 0.0 0.00 0.14 0.00 95 1025.7
20260510100036 49 298 0.0 0.0 0.00 0.46 0.00 95 1025.7
20260510094535 49 298 0.0 0.0 0.00 0.46 0.00 94 1025.7
20260510093034 49 298 0.0 0.0 0.00 0.46 0.00 94 1025.7
20260510091536 49 298 0.0 0.0 0.00 0.46 0.00 94 1025.7
20260510090035 49 298 0.0 0.0 0.00 0.46 0.00 94 1025.7
20260510084544 49 298 0.0 0.0 0.00 0.46 0.00 94 1025.7
20260510083028 50 298 0.0 0.0 0.00 0.46 0.00 94 1025.7
20260510081533 50 298 0.0 0.0 0.00 0.46 0.00 94 1025.7
20260510080025 51 298 0.0 0.0 0.00 0.46 0.00 94 1025.7
20260510074525 51 298 0.0 0.0 0.00 0.46 0.00 95 1025.7
20260510073038 51 298 0.0 0.0 0.00 0.46 0.00 95 1025.7
20260510071526 51 298 0.0 0.0 0.00 0.46 0.00 94 1025.7
20260510070025 51 298 0.0 0.0 0.00 0.46 0.00 94 1025.7
20260510064522 51 298 0.0 0.0 0.00 0.46 0.00 94 1025.7
20260510063023 51 298 0.0 0.0 0.00 0.46 0.00 94 1025.7
20260510061522 51 298 0.0 0.0 0.00 0.46 0.00 94 1025.7
20260510060033 51 298 0.0 0.0 0.00 0.46 0.00 94 1025.7
20260510054520 51 298 0.0 0.0 0.00 0.46 0.00 94 1025.7
20260510053019 51 298 0.0 0.0 0.00 0.46 0.00 94 1025.7
20260510051519 51 298 0.0 0.0 0.00 0.46 0.00 94 1025.7
20260510050018 51 298 0.0 0.0 0.00 0.46 0.00 94 1025.7
20260510044518 51 298 0.0 0.0 0.00 0.46 0.00 94 1025.7
20260510043018 51 297 0.0 0.0 0.00 0.46 0.00 94 1025.7
20260510041517 51 297 0.0 0.0 0.00 0.46 0.00 94 1025.7
20260510040016 51 297 0.0 0.0 0.00 0.46 0.46 94 1025.7
20260510034516 51 297 0.0 0.0 0.00 0.46 0.46 94 1025.7
20260510033016 51 297 0.0 0.0 0.00 0.46 0.46 94 1025.7
20260510031515 52 297 0.0 0.0 0.00 0.46 0.46 94 1025.7
20260510030012 51 297 0.0 0.0 0.00 0.46 0.46 95 1025.7
20260510024509 51 297 0.0 0.0 0.00 0.46 0.46 95 1025.7
20260510023008 51 297 0.0 0.0 0.00 0.46 0.46 95 1025.7
20260510021508 50 297 0.0 0.0 0.00 0.46 0.46 94 1025.7
20260510020008 50 298 0.0 0.0 0.00 0.46 0.46 94 1025.7
20260510014508 49 297 0.0 0.0 0.00 0.46 0.46 94 1025.7
20260510013007 49 297 0.0 0.0 0.00 0.46 0.46 94 1025.7
20260510011507 48 297 0.0 0.0 0.00 0.46 0.46 94 1025.7
20260510010005 48 297 0.0 0.0 0.00 0.46 0.46 94 1025.7
20260510004504 48 297 0.0 0.0 0.00 0.46 0.46 94 1025.7
20260510003005 48 297 0.0 0.0 0.00 0.46 0.46 94 1025.7
20260510001504 48 297 0.0 0.0 0.00 0.46 0.46 94 1025.7
20260510000004 48 297 0.0 0.0 0.00 0.46 0.46 93 1025.7
20260509234503 48 297 0.0 0.0 0.00 0.46 0.46 94 1025.7
20260509233003 48 297 0.0 0.0 0.00 0.46 0.46 93 1025.7
20260509231502 48 297 0.0 0.0 0.00 0.46 0.46 93 1025.7
20260509230002 48 297 0.0 0.0 0.00 0.46 0.46 93 1025.7
20260509224504 48 297 0.0 0.0 0.00 0.46 0.46 93 1025.7
20260509223002 48 297 0.0 0.0 0.00 0.46 0.46 93 1025.7
20260509221600 48 297 0.0 0.0 0.00 0.46 0.46 93 1025.7
20260509220100 48 297 0.0 0.0 0.00 0.46 0.46 93 1025.7
20260509214600 48 297 0.0 0.0 0.00 0.46 0.46 93 1025.7
20260509213059 48 297 0.0 1.0 0.00 0.46 0.46 93 1025.7
20260509211558 48 305 0.0 0.0 0.00 0.46 0.46 93 1025.7
20260509210107 48 305 0.0 0.0 0.00 0.46 0.46 93 1025.7
20260509204603 48 305 0.0 0.0 0.00 0.46 0.46 92 1025.7
20260509203056 49 305 0.0 0.0 0.00 0.46 0.46 92 1025.7
20260509201554 49 305 0.0 0.0 0.00 0.46 0.46 92 1025.7
20260509200107 49 305 0.0 0.0 0.00 0.46 0.46 92 1025.7
20260509194554 49 305 0.0 0.0 0.00 0.46 0.46 91 1025.7
20260509193054 49 256 0.0 0.0 0.00 0.46 0.46 92 1025.7
20260509191553 49 255 0.0 1.0 0.00 0.46 0.46 91 1025.7
20260509190057 49 326 0.0 5.0 0.00 0.46 0.46 91 1025.7
20260509184638 49 325 0.0 5.0 0.00 0.46 0.46 91 1025.7
20260509183056 49 325 0.0 5.0 0.00 0.46 0.46 90 1025.7
20260509181550 50 295 0.0 5.0 0.00 0.46 0.46 90 1025.7
20260509180049 51 266 0.0 0.0 0.00 0.46 0.46 91 1025.7
20260509174549 51 266 0.0 5.0 0.00 0.46 0.46 90 1025.7
20260509173049 51 148 0.0 0.0 0.00 0.46 0.46 90 1025.7
20260509171546 51 148 0.0 0.0 0.00 0.46 0.46 91 1025.7
20260509170046 51 88 0.0 0.0 0.00 0.46 0.46 91 1025.7
20260509164540 51 88 0.0 0.0 0.00 0.46 0.46 91 1025.7
20260509163045 50 88 0.0 0.0 0.00 0.46 0.46 91 1025.7
20260509161538 50 88 0.0 0.0 0.00 0.46 0.46 91 1025.7
20260509160037 49 88 0.0 0.0 0.00 0.46 0.46 89 1025.7
20260509154543 50 88 0.0 0.0 0.00 0.46 0.46 91 1025.7
20260509153136 49 88 0.0 0.0 0.00 0.46 0.46 90 1025.7
20260509151534 49 88 0.0 0.0 0.00 0.46 0.46 90 1025.7
20260509150033 49 88 0.0 0.0 0.00 0.46 0.46 88 1025.7